Location: eljas
(40.1958°N, 6.8661°W)
Time: 05:21:41
(UTC+02:00)

Daily predictions for brighter satellites

Satellite Brightness Start Highest point End
(mag) Time Altitude Azimuth Time Altitude Azimuth Time Altitude Azimuth
USA 267 4.0 00:31:31 48° NNW 00:31:31 48° NNW 00:36:08 10° NW
Terra 4.5 00:34:26 15° NNW 00:34:26 15° NNW 00:35:19 10° NNW
Cosmos 2369 Rocket 4.1 00:38:32 26° NW 00:38:32 26° NW 00:42:12 10° N
SL-16 R/B 4.1 04:06:21 31° NNE 04:06:21 31° NNE 04:10:09 10° N
Cosmos 2322 Rocket 4.4 04:09:32 21° NNE 04:09:32 21° NNE 04:11:20 10° NNE
SL-16 R/B 4.2 04:16:48 23° NNE 04:16:48 23° NNE 04:18:52 10° NNE
FALCON 9 R/B 4.2 04:29:01 64° SSE 04:29:01 64° SSE 04:58:30 10° ESE
Cosmos 2360 Rocket 3.9 04:37:04 30° NE 04:37:04 30° NE 04:40:01 10° NE
Cosmos 1980 Rocket 4.4 04:38:41 17° NNW 04:38:41 17° NNW 04:40:22 10° N
ADEOS Rocket 4.4 04:31:29 10° NNE 04:34:40 29° NE 04:34:40 29° NE
CENTAUR R/B 3.9 04:48:43 31° NNW 04:48:43 31° NNW 04:53:35 10° NNE
Cosmos 2333 Rocket 4.2 05:13:38 18° SE 05:15:31 21° E 05:19:40 10° NE
Cosmos 2322 4.3 05:20:46 54° NNE 05:20:46 54° NNE 05:25:08 10° NNE
Cosmos 2327 Rocket 4.5 05:22:31 10° N 05:28:48 76° E 05:29:16 72° ESE
DELTA 2 R/B (1) 4.0 05:32:26 55° E 05:32:26 55° E 05:36:48 10° E
Resurs 1-4 Rocket 3.3 05:28:41 10° N 05:31:47 33° NNW 05:31:47 33° NNW
Nadezhda 1 Rocket 4.1 05:33:16 61° SE 05:34:05 68° E 05:40:07 10° NNE
Cosmos 2333 4.3 05:38:42 65° SE 05:38:55 66° ESE 05:44:36 10° NNE
CZ-2D R/B 3.2 05:40:45 10° N 05:44:19 33° NNW 05:44:19 33° NNW
MOS 1 Rocket 3.6 05:42:15 10° NNE 05:46:30 58° E 05:46:30 58° E
SL-16 R/B 4.0 05:51:25 22° NW 05:51:25 22° NW 05:53:45 10° NNW
Meteor 1-18 Rocket 4.4 05:49:57 58° NW 05:49:57 58° NW 05:54:49 10° N
Cosmos 2322 Rocket 4.1 05:51:21 17° NW 05:51:21 17° NW 05:54:02 10° N
Cosmos 2208 Rocket 3.9 05:50:45 88° SSW 05:50:49 90° ESE 05:56:19 10° NNE
Cosmos 2074 Rocket 3.9 05:45:56 10° NNW 05:51:56 65° W 05:51:56 65° W
ADEOS II 3.4 05:47:39 10° NNE 05:52:32 37° E 05:56:08 17° SSE
SL-16 R/B 4.1 05:58:39 16° NW 05:58:39 16° NW 06:01:26 10° NNW
Cosmos 2219 Rocket 2.5 05:57:05 44° SSE 05:58:38 62° ESE 06:04:09 10° NNE
Meteor 1-13 Rocket 4.4 06:00:59 36° S 06:03:16 70° E 06:08:52 10° NNE
Cosmos 1844 Rocket 2.6 05:58:42 10° NNW 06:04:19 86° ENE 06:09:53 10° SSE
Cosmos 2341 Rocket 4.4 05:59:53 10° N 06:06:04 61° E 06:12:11 10° SSE
Cosmos 2237 4.4 06:07:30 50° WNW 06:07:46 50° WNW 06:13:21 10° NNE
Cosmos 1867 4.3 06:02:52 10° NNW 06:08:13 52° NE 06:13:31 10° SE
Hubble Space Telescope 3.3 06:09:55 11° SSE 06:09:55 11° SSE 06:10:26 10° SE
ARIANE 5 R/B 4.1 06:05:44 10° NNW 06:08:25 21° NW 06:08:25 21° NW
OTV 4 3.5 06:11:55 10° ESE 06:11:55 10° ESE 06:12:00 10° ESE
Meteor 1-12 Rocket 4.3 06:05:01 10° NNW 06:10:17 52° W 06:10:17 52° W
COSMOS 2428 2.7 06:11:34 54° W 06:12:16 59° WNW 06:17:54 10° NNE
Cosmos 468 Rocket 4.4 06:10:04 31° S 06:12:26 59° ESE 06:17:36 10° NNE
Gblst 52 Del rocket 4.3 06:14:06 52° WSW 06:14:56 57° SW 06:21:04 10° SE
Cosmos 2360 Rocket 3.4 06:18:50 25° NW 06:18:51 25° NW 06:23:28 10° N
Cosmos 1898 Rocket 3.8 06:14:24 10° NNW 06:19:34 65° ENE 06:24:41 10° SSE
ADEOS Rocket 3.9 06:17:29 10° N 06:21:38 26° WNW 06:21:38 26° WNW
Cosmos 1570 Rocket 4.4 06:22:16 42° WNW 06:22:32 42° WNW 06:27:31 10° N
Cosmos 2278 Rocket 2.9 06:21:37 10° NNW 06:27:13 56° ENE 06:32:46 10° SE
CZ-4B R/B 2.5 06:23:54 10° N 06:27:34 83° WNW 06:27:55 71° SW
ATLAS 5 CENTAUR R/B 2.7 06:22:25 10° NNW 06:28:28 72° NE 06:34:58 10° SE
Okean O Rocket 1.5 06:24:23 10° N 06:28:51 80° WNW 06:30:26 40° SSW
Cosmos 2237 Rocket 2.5 06:26:43 19° S 06:30:45 67° ESE 06:36:25 10° NNE
GENESIS II 4.2 06:30:11 56° SSW 06:31:01 87° SE 06:35:07 10° NNE
EXPRESS MD2 4.5 06:31:12 25° SSW 06:33:38 40° SE 06:36:49 10° ENE
Cosmos 1763 Rocket 4.3 06:30:20 10° S 06:35:11 49° ESE 06:40:07 10° NNE
Cosmos 2285 Rocket 4.0 06:31:13 19° SSW 06:36:05 89° ESE 06:42:34 10° NNE
BREEZE-M DEB (TANK) 3.2 06:36:14 39° SW 06:37:50 89° SE 06:51:17 10° ENE
Cosmos 1437 3.8 06:36:43 16° SSE 06:39:02 46° E 06:42:11 10° NNE
Cosmos 1937 Rocket 3.6 06:39:02 10° NNW 06:44:23 78° ENE 06:49:40 10° SSE
Cosmos 962 Rocket 4.5 06:38:57 10° NNW 06:45:11 66° W 06:51:27 10° S
USA 215 3.3 06:39:03 10° SE 06:45:35 80° NE 06:52:09 10° NW
Okean-O 3.8 06:43:29 10° NNE 06:47:44 43° E 06:51:57 10° S
Meteor 2-4 Rocket 3.6 06:42:39 12° SSW 06:47:46 76° W 06:53:13 10° N
Meteor 1-19 Rocket 4.4 06:45:07 23° SW 06:48:32 53° WNW 06:54:10 10° N
SL-8 R/B 3.8 06:46:15 16° NW 06:50:00 75° NNE 06:54:46 10° ESE
Cosmos 841 Rocket 4.1 06:46:38 10° S 06:51:39 56° ESE 06:56:41 10° NNE
Cosmos 1666 3.0 06:54:00 10° NNW 06:57:42 43° W 07:01:23 10° SSW
USA 229 DEB 4.0 06:54:48 23° WSW 06:59:05 53° NW 07:05:54 10° NNE
USA 229 3.9 06:54:53 23° WSW 06:59:11 53° NW 07:06:00 10° NNE
Cosmos 2333 Rocket 2.4 06:55:40 21° SW 06:59:18 54° WNW 07:04:57 10° NNE
CZ-2C R/B 3.7 06:55:56 10° S 07:00:24 55° W 07:04:51 10° NNW
PSLV R/B 3.8 06:57:08 10° N 07:01:21 48° WNW 07:04:29 17° SW
IRS-1C Rocket 4.3 06:57:32 10° N 07:02:35 48° WNW 07:06:52 14° SW
Meteor 1-15 Rocket 4.3 06:58:06 10° N 07:04:03 87° W 07:09:58 10° S
Cosmos 405 Rocket 2.8 07:02:56 10° SSW 07:06:54 62° W 07:10:52 10° N
Tiangong 2 3.4 07:08:21 12° SSW 07:08:21 12° SSW 07:08:56 10° S
Cosmos 1814 Rocket 4.0 07:03:33 14° SW 07:07:55 58° WNW 07:13:01 10° N
NOSS 3-1 (A) 3.7 07:05:35 10° SSW 07:11:15 66° ESE 07:17:35 10° NE
Cosmos 1743 4.4 07:09:33 10° NW 07:11:26 17° WNW 07:11:26 17° WNW
NOSS 3-1 (C) 3.4 07:06:34 10° SSW 07:12:15 90° ENE 07:18:42 10° NE
Cosmos 2058 Rocket 3.5 07:08:23 10° N 07:12:52 67° E 07:17:15 10° SSE
Cosmos 2298 Rocket 4.4 07:12:33 10° NNW 07:17:33 42° WSW 07:22:32 10° S
DELTA 2 R/B (1) 3.6 07:13:11 16° W 07:17:41 80° S 07:23:14 10° ESE
Cosmos 405 3.8 07:16:53 10° N 07:20:22 55° E 07:23:52 10° SSE
SL-8 Rocket 4.0 07:14:26 10° NNW 07:20:29 57° W 07:26:29 10° SSW
Meteor PRIRODA 3.9 07:17:19 10° N 07:20:58 47° WNW 07:24:34 10° SSW
GPS 2-04 Rocket1 3.4 07:19:21 16° WSW 07:22:10 41° S 07:25:49 10° ESE
Cosmos 1606 Rocket 3.7 07:20:06 10° NNW 07:24:28 54° W 07:28:49 10° S
CZ-4B R/B 4.0 07:23:45 10° N 07:28:41 32° WNW 07:33:31 10° SW
SL-16 R/B 2.3 07:23:44 10° SSW 07:29:24 86° ESE 07:35:07 10° NNE
ADEOS II 3.1 07:27:43 10° N 07:32:04 27° WNW 07:36:24 10° WSW
ERBS 3.4 07:28:50 10° NNW 07:32:13 48° NE 07:35:37 10° ESE
Cosmos 864 Rocket 4.5 07:26:20 10° NNW 07:32:29 67° W 07:38:39 10° S
Feng Yun 1-1 Rocket 4.3 07:26:45 10° N 07:32:34 71° WNW 07:38:11 10° SSW
Meteor 1-31 Rocket 3.0 07:30:43 10° N 07:34:22 45° WNW 07:38:00 10° SSW
Aureole 2 Rocket 4.0 07:33:31 12° WSW 07:35:30 18° WNW 07:37:54 10° NNW
SJ-6F 4.4 07:31:54 10° N 07:35:57 70° WNW 07:40:00 10° SSW
Radarsat Rocket 4.3 07:30:43 10° NNE 07:36:35 70° ESE 07:42:25 10° S
Cosmos 1809 Rocket 4.4 07:30:27 10° NNW 07:36:35 69° W 07:42:41 10° S
Cosmos 2228 3.0 07:33:48 10° N 07:38:09 79° W 07:42:31 10° S
Abrixas rocket 4.4 07:36:08 10° S 07:38:42 22° SE 07:41:18 10° E
ERS-2 2.8 07:35:41 10° N 07:39:04 35° WNW 07:42:27 10° SW
Cosmos 2219 Rocket 3.6 07:38:59 10° W 07:43:02 20° NW 07:47:07 10° N
Cosmos 1346 3.2 07:41:56 10° SSW 07:44:39 43° W 07:47:24 10° N
OTV 4 1.0 07:43:07 10° WSW 07:45:45 43° S 07:48:24 10° E
Cosmos 1844 Rocket 4.3 07:45:38 10° WNW 07:47:21 11° W 07:49:02 10° WSW
Hubble Space Telescope 2.9 07:46:40 10° SW 07:49:14 16° S 07:51:48 10° SE
